Time,TemperatureF,DewpointF,PressureIn,WindDirection,WindDirectionDegrees,WindSpeedMPH,WindSpeedGustMPH,Humidity,HourlyPrecipIn,Conditions,Clouds,dailyrainin,SolarRadiationWatts/m^2,SoftwareType,DateUTC
2013-08-08 00:01:00,68.0,68.0,-100.00,SSE,153,3.0,4.0,100,0.00,,,0.00,0.000000,,2013-08-08 04:01:00,
2013-08-08 00:11:00,68.0,68.0,-100.00,SSE,153,3.0,4.0,100,0.00,,,0.00,0.000000,,2013-08-08 04:11:00,
2013-08-08 00:44:00,68.0,68.0,-100.00,ENE,70,1.0,2.0,100,0.00,,,0.00,0.000000,,2013-08-08 04:44:00,
2013-08-08 00:53:00,68.0,68.0,-100.00,ENE,70,1.0,2.0,100,0.00,,,0.00,0.000000,,2013-08-08 04:53:00,
2013-08-08 01:02:00,68.0,68.0,-100.00,ENE,70,1.0,2.0,100,0.00,,,0.00,0.000000,,2013-08-08 05:02:00,
2013-08-08 01:11:00,68.0,68.0,-100.00,ENE,70,1.0,2.0,100,0.00,,,0.00,0.000000,,2013-08-08 05:11:00,
2013-08-08 01:43:00,67.0,67.0,-100.00,East,95,1.0,3.0,100,0.00,,,0.00,0.000000,,2013-08-08 05:43:00,
2013-08-08 01:52:00,67.0,67.0,-100.00,East,95,1.0,3.0,100,0.00,,,0.00,0.000000,,2013-08-08 05:52:00,
2013-08-08 02:01:00,67.0,67.0,-100.00,East,95,1.0,3.0,100,0.00,,,0.00,0.000000,,2013-08-08 06:01:00,
2013-08-08 02:12:00,67.0,67.0,-100.00,East,95,1.0,3.0,100,0.00,,,0.00,0.000000,,2013-08-08 06:12:00,
2013-08-08 02:43:00,67.0,67.0,-100.00,East,80,0.0,3.0,100,0.00,,,0.00,0.000000,,2013-08-08 06:43:00,
2013-08-08 02:52:00,67.0,67.0,-100.00,East,80,0.0,3.0,100,0.00,,,0.00,0.000000,,2013-08-08 06:52:00,
2013-08-08 03:02:00,67.0,67.0,-100.00,East,80,0.0,3.0,100,0.00,,,0.00,0.000000,,2013-08-08 07:02:00,
2013-08-08 03:12:00,67.0,67.0,-100.00,East,80,0.0,3.0,100,0.00,,,0.00,0.000000,,2013-08-08 07:12:00,
2013-08-08 03:43:00,67.0,67.0,-100.00,East,100,0.0,2.0,100,0.00,,,0.00,0.000000,,2013-08-08 07:43:00,
2013-08-08 03:53:00,67.0,67.0,-100.00,East,100,0.0,2.0,100,0.00,,,0.00,0.000000,,2013-08-08 07:53:00,
2013-08-08 04:02:00,67.0,67.0,-100.00,East,100,0.0,2.0,100,0.00,,,0.00,0.000000,,2013-08-08 08:02:00,
2013-08-08 04:11:00,67.0,67.0,-100.00,East,100,0.0,2.0,100,0.00,,,0.00,0.000000,,2013-08-08 08:11:00,
2013-08-08 04:43:00,67.0,67.0,-100.00,ESE,113,1.0,2.0,100,0.00,,,0.00,0.000000,,2013-08-08 08:43:00,
2013-08-08 04:53:00,67.0,67.0,-100.00,ESE,113,1.0,2.0,100,0.00,,,0.00,0.000000,,2013-08-08 08:53:00,
2013-08-08 05:02:00,67.0,67.0,-100.00,ESE,113,1.0,2.0,100,0.00,,,0.00,0.000000,,2013-08-08 09:02:00,
2013-08-08 05:12:00,67.0,67.0,-100.00,ESE,113,1.0,2.0,100,0.00,,,0.00,0.000000,,2013-08-08 09:12:00,
2013-08-08 05:43:00,67.0,67.0,-100.00,SE,139,2.0,5.0,100,0.29,,,0.29,0.000000,,2013-08-08 09:43:00,
2013-08-08 05:53:00,67.0,67.0,-100.00,SE,139,2.0,5.0,100,0.29,,,0.29,0.000000,,2013-08-08 09:53:00,
2013-08-08 06:01:00,67.0,67.0,-100.00,SE,139,2.0,5.0,100,0.29,,,0.29,0.000000,,2013-08-08 10:01:00,
2013-08-08 06:12:00,67.0,67.0,-100.00,SE,139,2.0,5.0,100,0.29,,,0.29,0.000000,,2013-08-08 10:12:00,
2013-08-08 06:43:00,67.0,67.0,-100.00,ESE,115,0.0,2.0,100,0.00,,,0.29,0.000000,,2013-08-08 10:43:00,
2013-08-08 06:52:00,67.0,67.0,-100.00,ESE,115,0.0,2.0,100,0.00,,,0.29,0.000000,,2013-08-08 10:52:00,
2013-08-08 07:02:00,67.0,67.0,-100.00,ESE,115,0.0,2.0,100,0.00,,,0.29,0.000000,,2013-08-08 11:02:00,
2013-08-08 07:11:00,67.0,67.0,-100.00,ESE,115,0.0,2.0,100,0.00,,,0.29,0.000000,,2013-08-08 11:11:00,
2013-08-08 07:43:00,67.0,67.0,-100.00,SE,127,1.0,3.0,100,0.00,,,0.29,6.000000,,2013-08-08 11:43:00,
2013-08-08 07:52:00,67.0,67.0,-100.00,SE,127,1.0,3.0,100,0.00,,,0.29,6.000000,,2013-08-08 11:52:00,
2013-08-08 08:01:00,67.0,67.0,-100.00,SE,127,1.0,3.0,100,0.00,,,0.29,6.000000,,2013-08-08 12:01:00,
2013-08-08 08:11:00,67.0,67.0,-100.00,SE,127,1.0,3.0,100,0.00,,,0.29,6.000000,,2013-08-08 12:11:00,
2013-08-08 08:43:00,68.0,68.0,-100.00,West,261,1.0,2.0,100,0.00,,,0.29,39.000000,,2013-08-08 12:43:00,
2013-08-08 08:53:00,68.0,68.0,-100.00,West,261,1.0,2.0,100,0.00,,,0.29,39.000000,,2013-08-08 12:53:00,
2013-08-08 09:01:00,68.0,68.0,-100.00,West,261,1.0,2.0,100,0.00,,,0.29,39.000000,,2013-08-08 13:01:00,
2013-08-08 09:12:00,68.0,68.0,-100.00,West,261,1.0,2.0,100,0.00,,,0.29,39.000000,,2013-08-08 13:12:00,
2013-08-08 09:43:00,70.0,70.0,-100.00,ESE,119,0.0,0.0,100,0.00,,,0.29,77.000000,,2013-08-08 13:43:00,
2013-08-08 09:53:00,70.0,70.0,-100.00,ESE,119,0.0,0.0,100,0.00,,,0.29,77.000000,,2013-08-08 13:53:00,
2013-08-08 10:02:00,70.0,70.0,-100.00,ESE,119,0.0,0.0,100,0.00,,,0.29,77.000000,,2013-08-08 14:02:00,
2013-08-08 10:11:00,70.0,70.0,-100.00,ESE,119,0.0,0.0,100,0.00,,,0.29,77.000000,,2013-08-08 14:11:00,
2013-08-08 10:43:00,72.0,71.0,-100.00,SE,145,2.0,3.0,97,0.00,,,0.29,145.000000,,2013-08-08 14:43:00,
2013-08-08 10:53:00,72.0,71.0,-100.00,SE,145,2.0,3.0,97,0.00,,,0.29,145.000000,,2013-08-08 14:53:00,
2013-08-08 11:02:00,72.0,71.0,-100.00,SE,145,2.0,3.0,97,0.00,,,0.29,145.000000,,2013-08-08 15:02:00,
2013-08-08 11:12:00,72.0,71.0,-100.00,SE,145,2.0,3.0,97,0.00,,,0.29,145.000000,,2013-08-08 15:12:00,
2013-08-08 11:43:00,76.0,74.0,-100.00,SSE,148,2.0,4.0,94,0.00,,,0.29,258.000000,,2013-08-08 15:43:00,
2013-08-08 11:53:00,76.0,74.0,-100.00,SSE,148,2.0,4.0,94,0.00,,,0.29,258.000000,,2013-08-08 15:53:00,
2013-08-08 12:02:00,76.0,74.0,-100.00,SSE,148,2.0,4.0,94,0.00,,,0.29,258.000000,,2013-08-08 16:02:00,
2013-08-08 12:11:00,76.0,74.0,-100.00,SSE,148,2.0,4.0,94,0.00,,,0.29,258.000000,,2013-08-08 16:11:00,
2013-08-08 12:42:00,79.0,73.0,-100.00,SE,131,2.0,7.0,83,0.00,,,0.29,324.000000,,2013-08-08 16:42:00,
2013-08-08 12:52:00,79.0,73.0,-100.00,SE,131,2.0,7.0,83,0.00,,,0.29,324.000000,,2013-08-08 16:52:00,
2013-08-08 13:02:00,79.0,73.0,-100.00,SE,131,2.0,7.0,83,0.00,,,0.29,324.000000,,2013-08-08 17:02:00,
2013-08-08 13:11:00,79.0,73.0,-100.00,SE,131,2.0,7.0,83,0.00,,,0.29,324.000000,,2013-08-08 17:11:00,
2013-08-08 13:43:00,80.0,76.0,-100.00,WNW,289,5.0,9.0,89,0.00,,,0.29,268.000000,,2013-08-08 17:43:00,
2013-08-08 13:52:00,80.0,76.0,-100.00,WNW,289,5.0,9.0,89,0.00,,,0.29,268.000000,,2013-08-08 17:52:00,
2013-08-08 14:02:00,80.0,76.0,-100.00,WNW,289,5.0,9.0,89,0.00,,,0.29,268.000000,,2013-08-08 18:02:00,
2013-08-08 14:11:00,80.0,76.0,-100.00,WNW,289,5.0,9.0,89,0.00,,,0.29,268.000000,,2013-08-08 18:11:00,
2013-08-08 14:43:00,77.0,75.0,-100.00,SW,229,3.0,9.0,94,0.01,,,0.30,190.000000,,2013-08-08 18:43:00,
2013-08-08 14:53:00,77.0,75.0,-100.00,SW,229,3.0,9.0,94,0.01,,,0.30,190.000000,,2013-08-08 18:53:00,
2013-08-08 15:01:00,77.0,75.0,-100.00,SW,229,3.0,9.0,94,0.01,,,0.30,190.000000,,2013-08-08 19:01:00,
2013-08-08 15:12:00,77.0,75.0,-100.00,SW,229,3.0,9.0,94,0.01,,,0.30,190.000000,,2013-08-08 19:12:00,
2013-08-08 15:43:00,75.0,73.0,-100.00,SE,127,2.0,6.0,93,0.00,,,0.30,216.000000,,2013-08-08 19:43:00,
2013-08-08 16:02:00,75.0,73.0,-100.00,SE,127,2.0,6.0,93,0.00,,,0.30,216.000000,,2013-08-08 20:02:00,
2013-08-08 16:11:00,75.0,73.0,-100.00,SE,127,2.0,6.0,93,0.00,,,0.30,216.000000,,2013-08-08 20:11:00,
2013-08-08 16:42:00,78.0,76.0,-100.00,SSE,148,2.0,4.0,93,0.00,,,0.30,222.000000,,2013-08-08 20:42:00,
2013-08-08 16:53:00,78.0,76.0,-100.00,SSE,148,2.0,4.0,93,0.00,,,0.30,222.000000,,2013-08-08 20:53:00,
2013-08-08 17:01:00,78.0,76.0,-100.00,SSE,148,2.0,4.0,93,0.00,,,0.30,222.000000,,2013-08-08 21:01:00,
2013-08-08 17:14:00,78.0,76.0,-100.00,SSE,148,2.0,4.0,93,0.00,,,0.30,222.000000,,2013-08-08 21:14:00,
2013-08-08 17:46:00,80.0,76.0,-100.00,South,189,3.0,6.0,87,0.00,,,0.30,289.000000,,2013-08-08 21:46:00,
2013-08-08 17:57:00,80.0,76.0,-100.00,South,189,3.0,6.0,87,0.00,,,0.30,289.000000,,2013-08-08 21:57:00,
2013-08-08 18:05:00,80.0,76.0,-100.00,South,189,3.0,6.0,87,0.00,,,0.30,289.000000,,2013-08-08 22:05:00,
2013-08-08 18:16:00,80.0,76.0,-100.00,South,189,3.0,6.0,87,0.00,,,0.30,289.000000,,2013-08-08 22:16:00,
2013-08-08 18:49:00,81.0,68.0,-100.00,West,271,5.0,14.0,65,0.00,,,0.30,323.000000,,2013-08-08 22:49:00,
2013-08-08 18:58:00,81.0,68.0,-100.00,West,271,5.0,14.0,65,0.00,,,0.30,323.000000,,2013-08-08 22:58:00,
2013-08-08 19:14:00,81.0,68.0,-100.00,West,271,5.0,14.0,65,0.00,,,0.30,323.000000,,2013-08-08 23:14:00,
2013-08-08 19:50:00,78.0,74.0,-100.00,SSE,147,2.0,9.0,87,0.00,,,-99.99,176.000000,,2013-08-08 23:50:00,
2013-08-08 19:57:00,78.0,74.0,-100.00,SSE,147,2.0,9.0,87,0.00,,,-99.99,176.000000,,2013-08-08 23:57:00,
2013-08-08 20:05:00,78.0,74.0,-100.00,SSE,147,2.0,9.0,87,0.00,,,-99.99,176.000000,,2013-08-09 00:05:00,
2013-08-08 20:15:00,78.0,74.0,-100.00,SSE,147,2.0,9.0,87,0.00,,,-99.99,176.000000,,2013-08-09 00:15:00,
2013-08-08 20:48:00,73.0,71.0,-100.00,SSE,165,2.0,5.0,92,0.00,,,0.30,43.000000,,2013-08-09 00:48:00,
2013-08-08 20:57:00,73.0,71.0,-100.00,SSE,165,2.0,5.0,92,0.00,,,0.30,43.000000,,2013-08-09 00:57:00,
2013-08-08 21:03:00,73.0,71.0,-100.00,SSE,165,2.0,5.0,92,0.00,,,0.30,43.000000,,2013-08-09 01:03:00,
2013-08-08 21:15:00,73.0,71.0,-100.00,SSE,165,2.0,5.0,92,0.00,,,0.30,43.000000,,2013-08-09 01:15:00,
2013-08-08 22:00:00,71.0,70.0,-100.00,ESE,119,1.0,4.0,97,0.00,,,0.30,1.000000,,2013-08-09 02:00:00,
2013-08-08 22:14:00,71.0,70.0,-100.00,ESE,119,1.0,4.0,97,0.00,,,0.30,1.000000,,2013-08-09 02:14:00,
2013-08-08 22:47:00,70.0,70.0,-100.00,SSE,159,1.0,2.0,100,0.00,,,0.30,0.000000,,2013-08-09 02:47:00,
2013-08-08 22:57:00,70.0,70.0,-100.00,SSE,159,1.0,2.0,100,0.00,,,0.30,0.000000,,2013-08-09 02:57:00,
2013-08-08 23:07:00,70.0,70.0,-100.00,SSE,159,1.0,2.0,100,0.00,,,0.30,0.000000,,2013-08-09 03:07:00,
2013-08-08 23:15:00,70.0,70.0,-100.00,SSE,159,1.0,2.0,100,0.00,,,0.30,0.000000,,2013-08-09 03:15:00,
2013-08-08 23:47:00,69.0,69.0,-100.00,ESE,119,0.0,3.0,100,0.00,,,0.30,0.000000,,2013-08-09 03:47:00,
2013-08-08 23:56:00,69.0,69.0,-100.00,ESE,119,0.0,3.0,100,0.00,,,0.30,0.000000,,2013-08-09 03:56:00,